Time,TemperatureF,DewpointF,PressureIn,WindDirection,WindDirectionDegrees,WindSpeedMPH,WindSpeedGustMPH,Humidity,HourlyPrecipIn,Conditions,Clouds,dailyrainin,SoftwareType,DateUTC
2013-05-10 00:03:00,55.0,54.0,29.93,NW,307,0.0,1.0,95,0.00,,,0.06,,2013-05-10 04:03:00,
2013-05-10 00:12:00,55.0,54.0,29.93,NW,307,0.0,0.0,95,0.00,,,0.06,,2013-05-10 04:12:00,
2013-05-10 00:23:00,55.0,54.0,29.93,NW,307,0.0,0.0,95,0.00,,,0.06,,2013-05-10 04:23:00,
2013-05-10 00:33:00,55.0,54.0,29.93,NW,307,0.0,1.0,95,0.00,,,0.06,,2013-05-10 04:33:00,
2013-05-10 00:43:00,55.0,54.0,29.93,NW,307,0.0,1.0,95,0.00,,,0.06,,2013-05-10 04:43:00,
2013-05-10 00:53:00,55.0,54.0,29.93,NW,307,0.0,1.0,95,0.00,,,0.06,,2013-05-10 04:53:00,
2013-05-10 01:02:00,55.0,54.0,29.93,NW,307,0.0,0.0,95,0.00,,,0.06,,2013-05-10 05:02:00,
2013-05-10 01:12:00,54.0,53.0,29.93,NW,307,0.0,1.0,95,0.00,,,0.06,,2013-05-10 05:12:00,
2013-05-10 01:22:00,54.0,53.0,29.93,NW,307,0.0,1.0,95,0.00,,,0.06,,2013-05-10 05:22:00,
2013-05-10 01:32:00,54.0,53.0,29.93,NW,307,0.0,1.0,95,0.00,,,0.06,,2013-05-10 05:32:00,
2013-05-10 01:42:00,54.0,53.0,29.93,NW,307,0.0,0.0,95,0.00,,,0.06,,2013-05-10 05:42:00,
2013-05-10 01:52:00,54.0,53.0,29.93,NW,307,0.0,0.0,95,0.00,,,0.06,,2013-05-10 05:52:00,
2013-05-10 02:02:00,55.0,54.0,29.93,NW,307,0.0,1.0,96,0.00,,,0.06,,2013-05-10 06:02:00,
2013-05-10 02:12:00,55.0,54.0,29.93,NW,307,0.0,2.0,95,0.00,,,0.06,,2013-05-10 06:12:00,
2013-05-10 02:21:00,55.0,54.0,29.93,NW,307,0.0,2.0,95,0.00,,,0.06,,2013-05-10 06:21:00,
2013-05-10 02:32:00,55.0,54.0,29.93,NW,307,0.0,1.0,95,0.00,,,0.06,,2013-05-10 06:32:00,
2013-05-10 02:42:00,55.0,53.0,29.93,NW,307,0.0,0.0,94,0.00,,,0.06,,2013-05-10 06:42:00,
2013-05-10 02:52:00,55.0,53.0,29.93,NW,307,0.0,0.0,94,0.00,,,0.06,,2013-05-10 06:52:00,
2013-05-10 03:02:00,55.0,54.0,29.93,NW,307,0.0,0.0,95,0.00,,,0.06,,2013-05-10 07:02:00,
2013-05-10 03:12:00,55.0,54.0,29.93,NW,307,0.0,0.0,95,0.00,,,0.06,,2013-05-10 07:12:00,
2013-05-10 03:22:00,54.0,53.0,29.93,NW,307,0.0,0.0,95,0.00,,,0.06,,2013-05-10 07:22:00,
2013-05-10 03:31:00,54.0,53.0,29.93,NW,307,0.0,0.0,95,0.00,,,0.06,,2013-05-10 07:31:00,
2013-05-10 03:42:00,54.0,53.0,29.93,NW,307,0.0,0.0,95,0.00,,,0.06,,2013-05-10 07:42:00,
2013-05-10 03:52:00,54.0,53.0,29.93,NW,307,0.0,0.0,95,0.00,,,0.06,,2013-05-10 07:52:00,
2013-05-10 04:02:00,54.0,53.0,29.94,NW,307,0.0,0.0,95,0.00,,,0.06,,2013-05-10 08:02:00,
2013-05-10 04:12:00,53.0,52.0,29.93,NW,307,0.0,0.0,96,0.00,,,0.06,,2013-05-10 08:12:00,
2013-05-10 04:22:00,53.0,52.0,29.93,NW,307,0.0,0.0,96,0.00,,,0.06,,2013-05-10 08:22:00,
2013-05-10 04:32:00,54.0,53.0,29.94,NW,307,0.0,0.0,96,0.00,,,0.06,,2013-05-10 08:32:00,
2013-05-10 04:42:00,54.0,53.0,29.95,NW,307,0.0,1.0,96,0.00,,,0.06,,2013-05-10 08:42:00,
2013-05-10 04:52:00,54.0,53.0,29.95,NW,307,0.0,1.0,96,0.00,,,0.06,,2013-05-10 08:52:00,
2013-05-10 05:01:00,54.0,53.0,29.95,NW,307,0.0,0.0,96,0.01,,,0.07,,2013-05-10 09:01:00,
2013-05-10 05:11:00,54.0,53.0,29.95,NW,307,0.0,0.0,96,0.01,,,0.07,,2013-05-10 09:11:00,
2013-05-10 05:21:00,54.0,53.0,29.96,NW,307,0.0,1.0,96,0.01,,,0.07,,2013-05-10 09:21:00,
2013-05-10 05:32:00,53.0,52.0,29.96,NW,307,0.0,0.0,96,0.01,,,0.07,,2013-05-10 09:32:00,
2013-05-10 05:43:00,53.0,52.0,29.96,NW,307,0.0,0.0,96,0.01,,,0.07,,2013-05-10 09:43:00,
2013-05-10 05:52:00,53.0,52.0,29.96,NW,307,0.0,0.0,96,0.01,,,0.07,,2013-05-10 09:52:00,
2013-05-10 06:03:00,53.0,52.0,29.96,NW,307,0.0,0.0,96,0.00,,,0.07,,2013-05-10 10:03:00,
2013-05-10 06:12:00,53.0,52.0,29.96,NW,307,0.0,0.0,96,0.00,,,0.07,,2013-05-10 10:12:00,
2013-05-10 06:23:00,52.0,51.0,29.96,NW,307,0.0,0.0,96,0.00,,,0.07,,2013-05-10 10:23:00,
2013-05-10 06:32:00,52.0,51.0,29.97,NW,307,0.0,0.0,96,0.00,,,0.07,,2013-05-10 10:32:00,
2013-05-10 06:42:00,53.0,52.0,29.96,NW,307,0.0,0.0,97,0.00,,,0.07,,2013-05-10 10:42:00,
2013-05-10 06:53:00,53.0,52.0,29.96,NW,307,0.0,0.0,97,0.00,,,0.07,,2013-05-10 10:53:00,
2013-05-10 07:02:00,54.0,53.0,29.96,NW,307,0.0,1.0,97,0.00,,,0.07,,2013-05-10 11:02:00,
2013-05-10 07:12:00,56.0,55.0,29.97,NW,307,0.0,4.0,97,0.00,,,0.06,,2013-05-10 11:12:00,
2013-05-10 07:22:00,56.0,55.0,29.97,NW,307,0.0,4.0,97,0.00,,,0.06,,2013-05-10 11:22:00,
2013-05-10 07:32:00,57.0,56.0,29.98,NW,307,2.0,4.0,96,0.00,,,0.06,,2013-05-10 11:32:00,
2013-05-10 07:42:00,58.0,56.0,29.98,WNW,302,0.0,6.0,94,0.00,,,0.06,,2013-05-10 11:42:00,
2013-05-10 07:52:00,58.0,56.0,29.98,WNW,302,0.0,6.0,94,0.00,,,0.06,,2013-05-10 11:52:00,
2013-05-10 08:01:00,60.0,57.0,29.98,WNW,294,1.0,4.0,89,0.00,,,0.06,,2013-05-10 12:01:00,
2013-05-10 08:12:00,61.0,56.0,29.98,NW,306,1.0,5.0,85,0.00,,,0.05,,2013-05-10 12:12:00,
2013-05-10 08:22:00,61.0,56.0,29.98,NW,306,1.0,5.0,85,0.00,,,0.05,,2013-05-10 12:22:00,
2013-05-10 08:32:00,62.0,57.0,29.98,NNE,32,0.0,6.0,83,0.00,,,0.05,,2013-05-10 12:32:00,
2013-05-10 08:42:00,62.0,57.0,29.98,NNE,32,0.0,6.0,83,0.00,,,0.05,,2013-05-10 12:42:00,
2013-05-10 08:52:00,63.0,57.0,29.98,NNE,21,2.0,10.0,81,0.00,,,0.05,,2013-05-10 12:52:00,
2013-05-10 09:01:00,63.0,57.0,29.98,WNW,284,1.0,6.0,80,0.00,,,0.05,,2013-05-10 13:01:00,
2013-05-10 09:11:00,63.0,57.0,29.98,WNW,284,1.0,6.0,80,0.00,,,0.05,,2013-05-10 13:11:00,
2013-05-10 09:21:00,64.0,57.0,29.98,WNW,284,2.0,5.0,78,0.00,,,0.04,,2013-05-10 13:21:00,
2013-05-10 09:32:00,65.0,58.0,29.98,NW,307,0.0,9.0,77,0.00,,,0.04,,2013-05-10 13:32:00,
2013-05-10 09:42:00,65.0,57.0,29.98,NE,41,5.0,10.0,75,0.00,,,0.04,,2013-05-10 13:42:00,
2013-05-10 09:52:00,65.0,57.0,29.98,NE,41,5.0,10.0,75,0.00,,,0.04,,2013-05-10 13:52:00,
2013-05-10 10:02:00,66.0,58.0,29.98,NW,315,0.0,5.0,75,0.00,,,0.04,,2013-05-10 14:02:00,
2013-05-10 10:11:00,68.0,58.0,29.98,NE,42,2.0,9.0,71,0.00,,,0.03,,2013-05-10 14:11:00,
2013-05-10 10:21:00,68.0,58.0,29.98,NE,42,2.0,9.0,71,0.00,,,0.03,,2013-05-10 14:21:00,
2013-05-10 10:32:00,69.0,58.0,29.98,West,278,2.0,5.0,68,0.00,,,0.03,,2013-05-10 14:32:00,
2013-05-10 10:42:00,69.0,58.0,29.98,NW,315,0.0,5.0,67,0.00,,,0.03,,2013-05-10 14:42:00,
2013-05-10 10:52:00,69.0,58.0,29.98,NW,315,0.0,5.0,67,0.00,,,0.03,,2013-05-10 14:52:00,
2013-05-10 11:02:00,70.0,57.0,29.98,West,269,2.0,5.0,64,0.00,,,0.03,,2013-05-10 15:02:00,
2013-05-10 11:20:00,-999.0,-99.9,29.98,ENE,62,4.0,9.0,63,0.00,,,0.02,,2013-05-10 15:20:00,
2013-05-10 11:32:00,71.0,54.0,29.97,NW,313,1.0,10.0,56,0.00,,,0.02,,2013-05-10 15:32:00,
2013-05-10 11:42:00,72.0,55.0,29.97,NNW,338,4.0,10.0,55,0.00,,,0.02,,2013-05-10 15:42:00,
2013-05-10 11:53:00,72.0,55.0,29.97,NNW,338,4.0,10.0,55,0.00,,,0.02,,2013-05-10 15:53:00,
2013-05-10 12:02:00,72.0,55.0,29.97,NW,326,1.0,8.0,56,0.00,,,0.02,,2013-05-10 16:02:00,
2013-05-10 12:12:00,73.0,55.0,29.96,West,275,2.0,10.0,53,0.00,,,0.01,,2013-05-10 16:12:00,
2013-05-10 12:23:00,73.0,55.0,29.96,West,275,2.0,10.0,53,0.00,,,0.01,,2013-05-10 16:23:00,
2013-05-10 12:32:00,73.0,55.0,29.96,WSW,254,2.0,4.0,53,0.00,,,0.01,,2013-05-10 16:32:00,
2013-05-10 12:42:00,73.0,55.0,29.96,West,274,4.0,8.0,53,0.00,,,0.01,,2013-05-10 16:42:00,
2013-05-10 12:53:00,73.0,55.0,29.96,West,274,4.0,8.0,53,0.00,,,0.01,,2013-05-10 16:53:00,
2013-05-10 13:02:00,73.0,55.0,29.96,WSW,250,1.0,10.0,53,0.00,,,0.01,,2013-05-10 17:02:00,
2013-05-10 13:12:00,73.0,55.0,29.96,WSW,250,1.0,10.0,53,0.00,,,0.01,,2013-05-10 17:12:00,
2013-05-10 13:22:00,75.0,56.0,29.96,North,350,3.0,7.0,52,0.00,,,0.01,,2013-05-10 17:22:00,
2013-05-10 13:32:00,75.0,55.0,29.95,WNW,286,3.0,7.0,50,0.00,,,0.01,,2013-05-10 17:32:00,
2013-05-10 13:42:00,75.0,55.0,29.95,NNW,336,0.0,7.0,50,0.00,,,0.01,,2013-05-10 17:42:00,
2013-05-10 13:52:00,75.0,55.0,29.95,NNW,336,0.0,7.0,50,0.00,,,0.01,,2013-05-10 17:52:00,
2013-05-10 14:10:00,-999.0,-99.9,29.95,WSW,257,2.0,7.0,52,0.00,,,0.01,,2013-05-10 18:10:00,
2013-05-10 14:22:00,77.0,57.0,29.95,WNW,289,3.0,9.0,51,0.00,,,0.01,,2013-05-10 18:22:00,
2013-05-10 14:34:00,76.0,55.0,29.94,WNW,282,0.0,6.0,48,0.00,,,0.01,,2013-05-10 18:34:00,
2013-05-10 14:43:00,77.0,53.0,29.95,NW,323,1.0,5.0,44,0.00,,,0.01,,2013-05-10 18:43:00,
2013-05-10 14:54:00,77.0,53.0,29.95,NW,323,1.0,5.0,44,0.00,,,0.01,,2013-05-10 18:54:00,
2013-05-10 15:02:00,77.0,55.0,29.94,SSE,161,2.0,7.0,46,0.00,,,0.01,,2013-05-10 19:02:00,
2013-05-10 15:11:00,77.0,53.0,29.93,NW,305,4.0,7.0,43,0.00,,,0.01,,2013-05-10 19:11:00,
2013-05-10 15:21:00,77.0,53.0,29.93,NW,305,4.0,7.0,43,0.00,,,0.01,,2013-05-10 19:21:00,
2013-05-10 15:32:00,77.0,51.0,29.93,WSW,252,0.0,7.0,40,0.00,,,0.01,,2013-05-10 19:32:00,
2013-05-10 15:42:00,78.0,52.0,29.93,NW,306,2.0,7.0,40,0.00,,,0.01,,2013-05-10 19:42:00,
2013-05-10 15:52:00,78.0,52.0,29.93,NW,306,2.0,7.0,40,0.00,,,0.01,,2013-05-10 19:52:00,
2013-05-10 16:01:00,78.0,51.0,29.93,West,260,4.0,10.0,39,0.00,,,0.01,,2013-05-10 20:01:00,
2013-05-10 16:12:00,78.0,51.0,29.93,West,260,4.0,10.0,39,0.00,,,0.01,,2013-05-10 20:12:00,
2013-05-10 16:21:00,77.0,49.0,29.93,West,273,2.0,9.0,38,0.00,,,0.01,,2013-05-10 20:21:00,
2013-05-10 16:32:00,78.0,52.0,29.93,WSW,250,1.0,9.0,40,0.00,,,0.01,,2013-05-10 20:32:00,
2013-05-10 16:42:00,78.0,52.0,29.93,WSW,250,1.0,9.0,40,0.00,,,0.01,,2013-05-10 20:42:00,
2013-05-10 16:52:00,77.0,52.0,29.91,NNW,336,0.0,6.0,42,0.00,,,0.01,,2013-05-10 20:52:00,
2013-05-10 17:02:00,77.0,52.0,29.91,NW,315,4.0,8.0,42,0.00,,,0.01,,2013-05-10 21:02:00,
2013-05-10 17:11:00,77.0,53.0,29.91,WNW,285,3.0,8.0,43,0.00,,,0.01,,2013-05-10 21:11:00,
2013-05-10 17:25:00,77.0,53.0,29.91,WNW,285,3.0,8.0,43,0.00,,,0.01,,2013-05-10 21:25:00,
2013-05-10 17:32:00,77.0,53.0,29.91,West,279,1.0,6.0,44,0.00,,,0.01,,2013-05-10 21:32:00,
2013-05-10 17:43:00,77.0,54.0,29.91,North,11,1.0,5.0,45,0.00,,,0.01,,2013-05-10 21:43:00,
2013-05-10 17:53:00,77.0,54.0,29.91,North,11,1.0,5.0,45,0.00,,,0.01,,2013-05-10 21:53:00,
2013-05-10 18:02:00,76.0,55.0,29.91,SSW,194,3.0,7.0,48,0.00,,,0.01,,2013-05-10 22:02:00,
2013-05-10 18:13:00,75.0,55.0,29.91,WSW,242,1.0,7.0,49,0.00,,,0.01,,2013-05-10 22:13:00,
2013-05-10 18:22:00,75.0,55.0,29.91,WSW,242,1.0,7.0,49,0.00,,,0.01,,2013-05-10 22:22:00,
2013-05-10 18:32:00,75.0,56.0,29.90,WSW,242,0.0,0.0,51,0.00,,,0.01,,2013-05-10 22:32:00,
2013-05-10 18:42:00,75.0,56.0,29.90,WSW,242,0.0,1.0,51,0.00,,,0.01,,2013-05-10 22:42:00,
2013-05-10 18:52:00,75.0,56.0,29.90,WSW,242,0.0,1.0,51,0.00,,,0.01,,2013-05-10 22:52:00,
2013-05-10 19:02:00,74.0,58.0,29.90,WSW,240,0.0,0.0,58,0.00,,,0.01,,2013-05-10 23:02:00,
2013-05-10 19:12:00,74.0,58.0,29.90,WSW,240,0.0,0.0,58,0.00,,,0.01,,2013-05-10 23:12:00,
2013-05-10 19:22:00,73.0,58.0,29.90,WSW,240,0.0,0.0,60,0.00,,,0.01,,2013-05-10 23:22:00,
2013-05-10 19:33:00,72.0,58.0,29.89,WSW,240,0.0,0.0,62,0.00,,,0.01,,2013-05-10 23:33:00,
2013-05-10 19:42:00,71.0,58.0,29.89,WSW,240,0.0,0.0,64,0.00,,,0.01,,2013-05-10 23:42:00,
2013-05-10 19:52:00,71.0,58.0,29.89,WSW,240,0.0,0.0,64,0.00,,,0.01,,2013-05-10 23:52:00,
2013-05-10 20:02:00,70.0,58.0,29.88,WSW,240,0.0,0.0,66,0.00,,,0.01,,2013-05-11 00:02:00,
2013-05-10 20:11:00,69.0,58.0,29.89,WSW,240,0.0,1.0,68,0.00,,,0.01,,2013-05-11 00:11:00,
2013-05-10 20:21:00,69.0,58.0,29.89,WSW,240,0.0,1.0,68,0.00,,,0.01,,2013-05-11 00:21:00,
2013-05-10 20:32:00,68.0,57.0,29.88,WSW,241,0.0,1.0,68,0.00,,,0.01,,2013-05-11 00:32:00,
2013-05-10 20:42:00,68.0,58.0,29.89,WSW,240,0.0,1.0,71,0.00,,,0.01,,2013-05-11 00:42:00,
2013-05-10 20:52:00,68.0,58.0,29.89,WSW,240,0.0,1.0,71,0.00,,,0.01,,2013-05-11 00:52:00,
2013-05-10 21:01:00,68.0,58.0,29.89,WSW,240,0.0,1.0,71,0.00,,,0.01,,2013-05-11 01:01:00,
2013-05-10 21:11:00,67.0,58.0,29.90,WSW,240,0.0,1.0,72,0.00,,,0.01,,2013-05-11 01:11:00,
2013-05-10 21:21:00,67.0,58.0,29.90,WSW,240,0.0,1.0,72,0.00,,,0.01,,2013-05-11 01:21:00,
2013-05-10 21:32:00,67.0,58.0,29.89,WSW,241,0.0,0.0,73,0.00,,,0.01,,2013-05-11 01:32:00,
2013-05-10 21:42:00,67.0,59.0,29.90,WSW,257,0.0,4.0,75,0.00,,,0.01,,2013-05-11 01:42:00,
2013-05-10 21:52:00,67.0,59.0,29.90,WSW,257,0.0,4.0,75,0.00,,,0.01,,2013-05-11 01:52:00,
2013-05-10 22:02:00,66.0,58.0,29.90,WSW,257,0.0,1.0,75,0.00,,,0.01,,2013-05-11 02:02:00,
2013-05-10 22:11:00,67.0,59.0,29.90,South,190,3.0,7.0,75,0.00,,,0.01,,2013-05-11 02:11:00,
2013-05-10 22:22:00,67.0,59.0,29.90,South,190,3.0,7.0,75,0.00,,,0.01,,2013-05-11 02:22:00,
2013-05-10 22:32:00,67.0,58.0,29.90,WSW,246,0.0,5.0,74,0.00,,,0.01,,2013-05-11 02:32:00,
2013-05-10 22:42:00,67.0,58.0,29.89,SW,236,0.0,3.0,74,0.00,,,0.01,,2013-05-11 02:42:00,
2013-05-10 22:52:00,67.0,58.0,29.89,SW,236,0.0,3.0,74,0.00,,,0.01,,2013-05-11 02:52:00,
2013-05-10 23:01:00,68.0,59.0,29.90,WSW,237,1.0,5.0,73,0.00,,,0.01,,2013-05-11 03:01:00,
2013-05-10 23:11:00,68.0,59.0,29.90,WSW,237,1.0,5.0,73,0.00,,,0.01,,2013-05-11 03:11:00,
2013-05-10 23:21:00,67.0,58.0,29.90,WNW,294,0.0,5.0,74,0.00,,,0.01,,2013-05-11 03:21:00,
2013-05-10 23:33:00,67.0,59.0,29.90,WSW,256,2.0,9.0,75,0.00,,,0.01,,2013-05-11 03:33:00,
2013-05-10 23:42:00,66.0,58.0,29.90,WNW,302,0.0,12.0,76,0.00,,,0.01,,2013-05-11 03:42:00,
2013-05-10 23:53:00,66.0,58.0,29.90,WNW,302,0.0,12.0,76,0.00,,,0.01,,2013-05-11 03:53:00,